When you browse on this site, cookies collect data to enhance your experience and personalize the content and advertising you see.
Visit our Privacy Policy to learn more. By continuing to use the site, you agree to this use of cookies and data.
  • In United Kingdom
  • List of Countries
  • For 7 days
  • Water Temperature
  • Satellite Maps
  • Weather Map
  • Weather Widgets
  • user-avatar
    Login

    Hourly Weather Djambala

    Today, 20 June, Thursday

    Time Temperature Precipitation Wind Pressure Humidity
    00:00 +26°C° 0 mm 1 mps 696 mmHg 51%
    01:00 +25°C° 0 mm 1 mps 696 mmHg 52%
    02:00 +25°C° 0 mm 1 mps 696 mmHg 53%
    03:00 +24°C° 0 mm 1 mps 695 mmHg 55%
    04:00 +24°C° 0 mm 1 mps 695 mmHg 56%
    05:00 +24°C° 0 mm 1 mps 696 mmHg 58%
    06:00 +24°C° 0 mm 1 mps 696 mmHg 60%
    07:00 +24°C° 0 mm 1 mps 696 mmHg 61%
    08:00 +26°C° 0 mm 2 mps 697 mmHg 56%
    09:00 +28°C° 0 mm 2 mps 697 mmHg 50%
    10:00 +30°C° 0 mm 2 mps 698 mmHg 45%
    11:00 +31°C° 0 mm 2 mps 697 mmHg 40%
    12:00 +32°C° 0 mm 2 mps 697 mmHg 36%
    13:00 +34°C° 0 mm 2 mps 696 mmHg 32%
    14:00 +34°C° 0 mm 2 mps 696 mmHg 32%
    15:00 +34°C° 0 mm 2 mps 695 mmHg 31%
    16:00 +34°C° 0 mm 2 mps 695 mmHg 31%
    17:00 +31°C° 0 mm 2 mps 695 mmHg 36%
    18:00 +30°C° 0 mm 1 mps 695 mmHg 41%
    19:00 +28°C° 0 mm 1 mps 695 mmHg 45%
    20:00 +27°C° 0 mm 1 mps 695 mmHg 49%
    21:00 +26°C° 0 mm 1 mps 696 mmHg 52%
    22:00 +26°C° 0 mm 1 mps 696 mmHg 55%
    23:00 +25°C° 0 mm 1 mps 696 mmHg 59%

    Tomorrow, 21 June, Friday

    Time Temperature Precipitation Wind Pressure Humidity
    00:00 +25°C° 0 mm 1 mps 696 mmHg 62%
    01:00 +24°C° 0 mm 1 mps 696 mmHg 66%
    02:00 +23°C° 0 mm 1 mps 696 mmHg 68%
    03:00 +23°C° 0 mm 1 mps 695 mmHg 70%
    04:00 +23°C° 0 mm 1 mps 695 mmHg 73%
    05:00 +23°C° 0 mm 1 mps 696 mmHg 73%
    06:00 +23°C° 0 mm 1 mps 696 mmHg 73%
    07:00 +23°C° 0 mm 1 mps 697 mmHg 74%
    08:00 +25°C° 0 mm 2 mps 697 mmHg 65%
    09:00 +27°C° 0 mm 2 mps 698 mmHg 57%
    10:00 +29°C° 0 mm 3 mps 698 mmHg 49%
    11:00 +31°C° 0 mm 3 mps 698 mmHg 44%
    12:00 +32°C° 0 mm 2 mps 697 mmHg 39%
    13:00 +34°C° 0 mm 2 mps 697 mmHg 34%
    14:00 +34°C° 0 mm 2 mps 696 mmHg 33%
    15:00 +34°C° 0 mm 2 mps 695 mmHg 33%
    16:00 +34°C° 0 mm 2 mps 695 mmHg 32%
    17:00 +32°C° 0 mm 2 mps 695 mmHg 36%
    18:00 +30°C° 0 mm 2 mps 695 mmHg 41%
    19:00 +29°C° 0 mm 2 mps 695 mmHg 45%
    20:00 +28°C° 0 mm 2 mps 696 mmHg 48%
    21:00 +27°C° 0 mm 2 mps 696 mmHg 52%
    22:00 +26°C° 0 mm 2 mps 696 mmHg 56%
    23:00 +25°C° 0 mm 2 mps 696 mmHg 58%

    Day after tomorrow, 22 June, Saturday

    Time Temperature Precipitation Wind Pressure Humidity
    00:00 +24°C° 0 mm 2 mps 696 mmHg 61%
    01:00 +24°C° 0 mm 2 mps 696 mmHg 63%
    02:00 +23°C° 0 mm 2 mps 696 mmHg 68%
    03:00 +21°C° 0 mm 2 mps 696 mmHg 72%
    04:00 +21°C° 0 mm 2 mps 696 mmHg 76%
    05:00 +20°C° 0 mm 2 mps 696 mmHg 76%
    06:00 +20°C° 0 mm 3 mps 696 mmHg 75%
    07:00 +20°C° 0 mm 3 mps 697 mmHg 75%
    08:00 +22°C° 0 mm 3 mps 697 mmHg 66%
    09:00 +25°C° 0 mm 3 mps 698 mmHg 58%
    10:00 +27°C° 0 mm 3 mps 698 mmHg 50%
    11:00 +29°C° 0 mm 3 mps 698 mmHg 46%
    12:00 +30°C° 0 mm 3 mps 697 mmHg 43%
    13:00 +31°C° 0 mm 3 mps 697 mmHg 39%
    14:00 +33°C° 0 mm 3 mps 696 mmHg 39%
    15:00 +33°C° 0 mm 3 mps 696 mmHg 38%
    16:00 +32°C° 0 mm 2 mps 695 mmHg 38%
    17:00 +30°C° 0 mm 2 mps 695 mmHg 42%
    18:00 +29°C° 0 mm 2 mps 695 mmHg 47%
    19:00 +27°C° 0 mm 2 mps 695 mmHg 51%
    20:00 +27°C° 0 mm 2 mps 696 mmHg 53%
    21:00 +26°C° 0 mm 2 mps 696 mmHg 55%
    22:00 +25°C° 0 mm 2 mps 696 mmHg 57%
    23:00 +25°C° 0 mm 2 mps 696 mmHg 59%

    23 June, Sunday

    Time Temperature Precipitation Wind Pressure Humidity
    00:00 +24°C° 0 mm 1 mps 696 mmHg 61%
    01:00 +23°C° 0 mm 1 mps 695 mmHg 63%
    02:00 +23°C° 0 mm 1 mps 695 mmHg 65%
    03:00 +22°C° 0 mm 1 mps 695 mmHg 67%
    04:00 +21°C° 0 mm 1 mps 695 mmHg 69%
    05:00 +20°C° 0 mm 2 mps 695 mmHg 70%
    06:00 +20°C° 0 mm 2 mps 696 mmHg 72%
    07:00 +20°C° 0 mm 2 mps 696 mmHg 73%
    08:00 +22°C° 0 mm 3 mps 697 mmHg 66%
    09:00 +25°C° 0 mm 3 mps 697 mmHg 58%
    10:00 +27°C° 0 mm 4 mps 698 mmHg 50%
    11:00 +28°C° 0 mm 4 mps 697 mmHg 46%
    12:00 +30°C° 0 mm 4 mps 697 mmHg 42%
    13:00 +31°C° 0 mm 3 mps 696 mmHg 38%
    14:00 +31°C° 0 mm 3 mps 696 mmHg 37%
    15:00 +31°C° 0 mm 3 mps 695 mmHg 37%
    16:00 +31°C° 0 mm 3 mps 695 mmHg 36%
    17:00 +30°C° 0 mm 3 mps 695 mmHg 41%
    18:00 +28°C° 0 mm 2 mps 695 mmHg 45%
    19:00 +26°C° 0 mm 2 mps 695 mmHg 50%
    20:00 +25°C° 0 mm 2 mps 696 mmHg 52%
    21:00 +25°C° 0 mm 2 mps 696 mmHg 54%
    22:00 +24°C° 0 mm 2 mps 696 mmHg 57%
    23:00 +23°C° 0 mm 2 mps 696 mmHg 58%

    24 June, Monday

    Time Temperature Precipitation Wind Pressure Humidity
    00:00 +23°C° 0 mm 2 mps 696 mmHg 60%
    01:00 +21°C° 0 mm 2 mps 695 mmHg 61%
    02:00 +21°C° 0 mm 2 mps 695 mmHg 64%
    03:00 +20°C° 0 mm 2 mps 695 mmHg 67%
    04:00 +19°C° 0 mm 2 mps 695 mmHg 70%
    05:00 +19°C° 0 mm 2 mps 695 mmHg 73%
    06:00 +19°C° 0 mm 2 mps 696 mmHg 75%
    07:00 +19°C° 0 mm 2 mps 696 mmHg 77%
    08:00 +23°C° 0 mm 2 mps 697 mmHg 67%
    09:00 +25°C° 0 mm 3 mps 697 mmHg 56%
    10:00 +27°C° 0 mm 3 mps 698 mmHg 46%
    11:00 +29°C° 0 mm 3 mps 697 mmHg 41%
    12:00 +30°C° 0 mm 3 mps 697 mmHg 36%
    13:00 +32°C° 0 mm 2 mps 696 mmHg 31%
    14:00 +32°C° 0 mm 2 mps 695 mmHg 30%
    15:00 +32°C° 0 mm 2 mps 695 mmHg 29%
    16:00 +34°C° 0 mm 2 mps 694 mmHg 27%
    17:00 +30°C° 0 mm 2 mps 694 mmHg 32%
    18:00 +28°C° 0 mm 2 mps 694 mmHg 37%
    19:00 +26°C° 0 mm 2 mps 694 mmHg 42%
    20:00 +25°C° 0 mm 2 mps 695 mmHg 45%
    21:00 +25°C° 0 mm 2 mps 695 mmHg 48%
    22:00 +24°C° 0 mm 2 mps 695 mmHg 51%
    23:00 +23°C° 0 mm 2 mps 695 mmHg 53%

    25 June, Tuesday

    Time Temperature Precipitation Wind Pressure Humidity
    00:00 +23°C° 0 mm 1 mps 695 mmHg 55%
    01:00 +22°C° 0 mm 1 mps 695 mmHg 57%
    02:00 +22°C° 0 mm 1 mps 695 mmHg 59%
    03:00 +21°C° 0 mm 1 mps 694 mmHg 60%
    04:00 +21°C° 0 mm 1 mps 694 mmHg 62%
    05:00 +21°C° 0 mm 1 mps 695 mmHg 63%
    06:00 +21°C° 0 mm 1 mps 695 mmHg 64%
    07:00 +20°C° 0 mm 2 mps 695 mmHg 65%
    08:00 +23°C° 0 mm 2 mps 696 mmHg 58%
    09:00 +25°C° 0 mm 3 mps 696 mmHg 51%
    10:00 +28°C° 0 mm 3 mps 697 mmHg 44%
    11:00 +30°C° 0 mm 3 mps 696 mmHg 39%
    12:00 +31°C° 0 mm 3 mps 696 mmHg 34%
    13:00 +34°C° 0 mm 2 mps 695 mmHg 29%
    14:00 +34°C° 0 mm 2 mps 695 mmHg 27%
    15:00 +34°C° 0 mm 2 mps 694 mmHg 25%
    16:00 +34°C° 0 mm 2 mps 694 mmHg 23%
    17:00 +31°C° 0 mm 2 mps 694 mmHg 28%
    18:00 +29°C° 0 mm 2 mps 694 mmHg 33%
    19:00 +27°C° 0 mm 2 mps 694 mmHg 38%
    20:00 +26°C° 0 mm 2 mps 694 mmHg 44%
    21:00 +25°C° 0 mm 2 mps 695 mmHg 49%
    22:00 +24°C° 0 mm 2 mps 695 mmHg 54%
    23:00 +24°C° 0 mm 2 mps 695 mmHg 57%
    Show more